Harlan, KY

3:00 AM EDT on August 21, 2017 (GMT -0400)
Harlan

Weather History for KI35 - September, 2014

Change the Weather History Date:

Tuesday, September 2, 2014

  Actual Average (KLOZ) Record (KLOZ)
Temperature  
Mean Temperature 78 °F -  
Max Temperature 87 °F 83 °F 96 °F (2011)
Min Temperature 68 °F 62 °F 46 °F (1987)
Cooling Degree Days 12    
Growing Degree Days 28 (Base 50)    
Moisture  
Dew Point 68 °F    
Average Humidity 84    
Maximum Humidity 100    
Minimum Humidity 46    
Precipitation  
Precipitation 0.00 in - - ()
Sea Level Pressure  
Sea Level Pressure 30.08 in    
Wind  
Wind Speed - (North)    
Max Wind Speed -    
Max Gust Speed -    
Visibility 5 miles    
Events      
Averages and records for this station are not official NWS values.
T = Trace of Precipitation, MM = Missing Value Source: NWS Daily Summary

Daily Weather History Graph

Daily Weather History Graph

Search for Another Location

Airport or City:

Trip Planner

Search our weather history database for the weather conditions in past years. The results will help you decide how hot, cold, wet, or windy it might be!

Date:

Astronomy

Sep. 02, 2014 Rise Set
Actual Time 7:05 AM EDT 8:00 PM EDT
Civil Twilight 6:38 AM EDT 8:26 PM EDT
Nautical Twilight 6:07 AM EDT 8:58 PM EDT
Astronomical Twilight 5:34 AM EDT 9:30 PM EDT
Moon 2:37 PM EDT (9/2) 12:12 AM EDT (9/2)
Length of Visible Light 13h 48m
Length of Day
12h 55m
First Quarter, 52% of the Moon is Illuminated
Sep 2
First Quarter
Sep 8
Full
Sep 15
Last Quarter
Sep 24
New
Oct 1
First Quarter

Hourly Weather History & Observations

Time (EDT) Temp. Heat Index Dew Point Humidity Pressure Visibility Wind Dir Wind Speed Gust Speed Precip Events Conditions
12:15 AM 69.8 °F - 69.8 °F 100% 30.11 in 5.0 mi North - - N/A   Scattered Clouds
12:35 AM 69.8 °F - 69.8 °F 100% 30.11 in 4.0 mi North - - N/A   Scattered Clouds
12:55 AM 69.8 °F - 69.8 °F 100% 30.11 in 5.0 mi North - - N/A   Clear
1:15 AM 69.8 °F - 69.8 °F 100% 30.10 in 3.0 mi North - - N/A   Clear
1:35 AM 69.8 °F - 69.8 °F 100% 30.10 in 4.0 mi North - - N/A   Clear
1:55 AM 69.8 °F - 69.8 °F 100% 30.10 in 1.5 mi North - - N/A   Scattered Clouds
2:15 AM 69.8 °F - 69.8 °F 100% 30.09 in 3.0 mi North - - N/A   Clear
2:35 AM 69.8 °F - 69.8 °F 100% 30.10 in 2.5 mi North - - N/A   Clear
2:55 AM 69.8 °F - 69.8 °F 100% 30.10 in 2.5 mi North - - N/A   Clear
3:15 AM 69.8 °F - 69.8 °F 100% 30.11 in 2.0 mi North - - N/A   Scattered Clouds
3:35 AM 69.8 °F - 69.8 °F 100% 30.10 in 0.2 mi North - - N/A   Overcast
3:55 AM 68.0 °F - 68.0 °F 100% 30.10 in 0.8 mi North - - N/A   Overcast
4:15 AM 68.0 °F - 68.0 °F 100% 30.10 in 0.8 mi North - - N/A   Mostly Cloudy
4:35 AM 68.0 °F - 68.0 °F 100% 30.10 in 0.8 mi North - - N/A   Mostly Cloudy
4:55 AM 68.0 °F - 68.0 °F 100% 30.10 in 0.2 mi North - - N/A   Overcast
5:15 AM 68.0 °F - 68.0 °F 100% 30.10 in 0.2 mi North - - N/A   Overcast
5:35 AM 68.0 °F - 68.0 °F 100% 30.10 in 1.0 mi North - - N/A   Overcast
5:55 AM 68.0 °F - 68.0 °F 100% 30.10 in 0.2 mi North - - N/A   Overcast
6:15 AM 68.0 °F - 68.0 °F 100% 30.11 in 0.2 mi North - - N/A   Overcast
6:35 AM 68.0 °F - 68.0 °F 100% 30.12 in 0.2 mi North - - N/A   Overcast
6:55 AM 68.0 °F - 68.0 °F 100% 30.12 in 0.2 mi North - - N/A   Overcast
7:15 AM 68.0 °F - 68.0 °F 100% 30.12 in 0.2 mi North - - N/A   Overcast
7:35 AM 68.0 °F - 68.0 °F 100% 30.12 in 0.2 mi North - - N/A   Overcast
7:55 AM 68.0 °F - 68.0 °F 100% 30.13 in 0.2 mi North - - N/A   Overcast
8:15 AM 68.0 °F - 68.0 °F 100% 30.13 in 0.2 mi North - - N/A   Overcast
8:35 AM 69.8 °F - 68.0 °F 94% 30.12 in 0.2 mi North - - N/A   Overcast
8:55 AM 69.8 °F - 69.8 °F 100% 30.12 in 0.2 mi North - - N/A   Overcast
9:15 AM 69.8 °F - 69.8 °F 100% 30.12 in 0.5 mi North - - N/A   Overcast
9:35 AM 71.6 °F - 69.8 °F 94% 30.12 in 7.0 mi North - - N/A   Overcast
9:55 AM 71.6 °F - 71.6 °F 100% 30.12 in 10.0 mi North - - N/A   Mostly Cloudy
10:15 AM 77.0 °F - 71.6 °F 83% 30.12 in 10.0 mi North - - N/A   Overcast
10:35 AM 78.8 °F - 69.8 °F 74% 30.12 in 10.0 mi North - - N/A   Mostly Cloudy
10:55 AM 80.6 °F 83.9 °F 69.8 °F 70% 30.13 in 10.0 mi North - - N/A   Mostly Cloudy
11:15 AM 82.4 °F 86.3 °F 69.8 °F 66% 30.12 in 10.0 mi North - - N/A   Scattered Clouds
11:35 AM 84.2 °F 87.3 °F 68.0 °F 58% 30.11 in 10.0 mi North - - N/A   Scattered Clouds
11:55 AM 84.2 °F 87.3 °F 68.0 °F 58% 30.10 in 10.0 mi North - - N/A   Mostly Cloudy
12:15 PM 86.0 °F 89.4 °F 68.0 °F 55% 30.10 in 10.0 mi North - - N/A   Mostly Cloudy
12:35 PM 86.0 °F 88.2 °F 66.2 °F 51% 30.09 in 10.0 mi North - - N/A   Scattered Clouds
12:55 PM 87.8 °F 90.4 °F 66.2 °F 49% 30.08 in 10.0 mi North - - N/A   Scattered Clouds
1:15 PM 86.0 °F 87.3 °F 64.4 °F 48% 30.07 in 10.0 mi North - - N/A   Scattered Clouds
1:35 PM 86.0 °F 87.3 °F 64.4 °F 48% 30.07 in 10.0 mi North - - N/A   Mostly Cloudy
1:55 PM 86.0 °F 87.3 °F 64.4 °F 48% 30.06 in 10.0 mi North - - N/A   Mostly Cloudy
2:15 PM 86.0 °F 87.3 °F 64.4 °F 48% 30.06 in 10.0 mi North - - N/A   Mostly Cloudy
2:35 PM 87.8 °F 89.4 °F 64.4 °F 46% 30.05 in 10.0 mi North - - N/A   Scattered Clouds
2:55 PM 86.0 °F 88.2 °F 66.2 °F 51% 30.03 in 10.0 mi North - - N/A   Scattered Clouds
3:15 PM 87.8 °F 89.4 °F 64.4 °F 46% 30.03 in 10.0 mi North - - N/A   Mostly Cloudy
3:35 PM 86.0 °F 88.2 °F 66.2 °F 51% 30.01 in 10.0 mi North - - N/A   Mostly Cloudy
3:55 PM 86.0 °F 88.2 °F 66.2 °F 51% 30.01 in 10.0 mi North - - N/A   Overcast
4:15 PM 84.2 °F 85.6 °F 64.4 °F 51% 29.99 in 10.0 mi North - - N/A   Overcast
4:35 PM 86.0 °F 87.3 °F 64.4 °F 48% 30.00 in 10.0 mi North - - N/A   Scattered Clouds
4:55 PM 86.0 °F 87.3 °F 64.4 °F 48% 29.99 in 10.0 mi North - - N/A   Mostly Cloudy
5:15 PM 86.0 °F 87.3 °F 64.4 °F 48% 29.99 in 10.0 mi North - - N/A   Overcast
5:35 PM 82.4 °F 85.4 °F 68.0 °F 62% 29.99 in 10.0 mi North - - N/A   Overcast
5:55 PM 82.4 °F 84.6 °F 66.2 °F 58% 29.99 in 10.0 mi North - - N/A   Overcast
6:15 PM 77.0 °F - 69.8 °F 78% 29.99 in 7.0 mi North - - N/A   Overcast
6:55 PM 73.4 °F - 69.8 °F 88% 29.97 in 10.0 mi North - - N/A   Mostly Cloudy
7:15 PM 73.4 °F - 71.6 °F 94% 30.05 in 10.0 mi North - - N/A   Mostly Cloudy
7:35 PM 69.8 °F - 69.8 °F 100% 30.03 in 1.0 mi North - - N/A   Overcast
7:55 PM 69.8 °F - 69.8 °F 100% 30.03 in 10.0 mi North - - N/A   Overcast
8:10 PM 69.8 °F - 69.8 °F 100% 30.04 in 1.0 mi North - - N/A   Overcast
8:35 PM 68.0 °F - 68.0 °F 100% 30.06 in 10.0 mi North - - N/A   Mostly Cloudy
8:55 PM 68.0 °F - 68.0 °F 100% 30.07 in 2.0 mi North - - N/A   Overcast
9:15 PM 68.0 °F - 68.0 °F 100% 30.08 in 2.0 mi North - - N/A   Overcast
9:35 PM 69.8 °F - 69.8 °F 100% 30.10 in 5.0 mi North - - N/A   Overcast
9:55 PM 68.0 °F - 68.0 °F 100% 30.10 in 1.5 mi North - - N/A   Overcast
10:15 PM 68.0 °F - 68.0 °F 100% 30.09 in 5.0 mi North - - N/A   Mostly Cloudy
10:35 PM 68.0 °F - 68.0 °F 100% 30.09 in 1.5 mi North - - N/A   Mostly Cloudy
10:55 PM 68.0 °F - 68.0 °F 100% 30.08 in 0.8 mi North - - N/A   Overcast
11:15 PM 68.0 °F - 68.0 °F 100% 30.08 in 1.0 mi North - - N/A   Overcast
11:35 PM 68.0 °F - 68.0 °F 100% 30.09 in 5.0 mi North - - N/A   Mostly Cloudy
11:55 PM 68.0 °F - 68.0 °F 100% 30.09 in 10.0 mi North - - N/A   Mostly Cloudy